Powrót do katalogu

QIANFAN-50

AktywnyŁącznośćPO
NORAD 62251·PAYLOAD·🇨🇳 China

Wystrzelony Dec 5, 2024 z Taiyuan Satellite Launch Center

Loading…

Następne Przeloty (najbliższe 24 godziny)

TLE

ŚwieżeSource: Space-Track

Epoka: Sep 14, 2026, 21:32 UTC

1 62251U 24232Q   26257.89759388  .00000103  00000-0  13978-3 0  9993
2 62251  89.0164  13.5436 0017735 117.2079 243.0882 13.51029077105152

Śledź QIANFAN-50 w czasie rzeczywistym z AllMySat

Download on the App Store